| time (UTC) | temp C | wind direction | speed KPH | gust KPH | rain 1hr cm | rain 24hr cm | rain mn cm | humidity % | barometer mb |
| 20260506114621 | 10 | 229 | 0.0 | 0.0 | 0.23 | 1.12 | 0.91 | 94 | 1010.1 |
| 20260506113119 | 10 | 258 | 0.0 | 0.0 | 0.23 | 1.09 | 0.89 | 94 | 1010.2 |
| 20260506110117 | 10 | 242 | 0.0 | 0.0 | 0.13 | 0.99 | 0.79 | 94 | 1010.7 |
| 20260506104614 | 10 | 225 | 0.0 | 0.0 | 0.00 | 1.19 | 0.66 | 94 | 1010.7 |
| 20260506103110 | 10 | 211 | 0.0 | 0.0 | 0.03 | 1.19 | 0.66 | 94 | 1010.9 |
| 20260506100117 | 9 | 229 | 0.0 | 0.0 | 0.03 | 1.19 | 0.66 | 93 | 1011.0 |
| 20260506093119 | 9 | 229 | 0.0 | 0.0 | 0.00 | 1.45 | 0.64 | 92 | 1011.0 |
| 20260506090120 | 9 | 209 | 0.0 | 0.0 | 0.00 | 1.45 | 0.64 | 94 | 1011.0 |
| 20260506083116 | 8 | 207 | 0.0 | 0.0 | 0.05 | 1.47 | 0.64 | 95 | 1010.9 |
| 20260506080119 | 9 | 228 | 0.0 | 0.0 | 0.08 | 1.47 | 0.64 | 96 | 1010.7 |
| 20260506073118 | 8 | 228 | 0.0 | 0.0 | 0.15 | 1.45 | 0.61 | 96 | 1010.9 |
| 20260506071616 | 8 | 228 | 0.0 | 0.0 | 0.23 | 1.42 | 0.58 | 96 | 1010.9 |
| 20260506060121 | 8 | 228 | 0.0 | 0.0 | 0.23 | 1.09 | 0.23 | 96 | 1011.2 |
| 20260506050115 | 7 | 228 | 0.0 | 0.0 | 0.00 | 0.84 | 0.00 | 96 | 1010.6 |
| 20260506043114 | 7 | 228 | 0.0 | 0.0 | 0.00 | 0.84 | 0.00 | 96 | 1010.5 |
| 20260506041628 | 7 | 228 | 0.0 | 0.0 | 0.00 | 0.84 | 0.00 | 96 | 1010.3 |
| 20260506034619 | 7 | 228 | 0.0 | 0.0 | 0.00 | 0.84 | 0.00 | 96 | 1010.9 |
| 20260506031619 | 7 | 228 | 0.0 | 0.0 | 0.00 | 0.84 | 0.00 | 96 | 1011.4 |
| 20260506030116 | 7 | 228 | 0.0 | 0.0 | 0.00 | 0.84 | 0.00 | 96 | 1011.5 |
| 20260506024615 | 7 | 228 | 0.0 | 0.0 | 0.00 | 0.84 | 0.00 | 96 | 1011.6 |
| 20260506021612 | 7 | 228 | 0.0 | 0.0 | 0.00 | 0.84 | 0.00 | 96 | 1011.6 |
| 20260506014620 | 8 | 228 | 0.0 | 0.0 | 0.00 | 0.84 | 0.00 | 96 | 1011.7 |
| 20260506011618 | 8 | 228 | 0.0 | 0.0 | 0.00 | 0.84 | 0.00 | 96 | 1012.2 |
| 20260506010117 | 8 | 228 | 0.0 | 0.0 | 0.00 | 0.84 | 0.00 | 96 | 1012.3 |
| 20260506003115 | 8 | 228 | 0.0 | 0.0 | 0.00 | 0.84 | 0.00 | 96 | 1012.4 |
| 20260506001611 | 8 | 228 | 0.0 | 0.0 | 0.00 | 0.84 | 0.00 | 96 | 1012.5 |
| 20260505234615 | 8 | 228 | 0.0 | 0.0 | 0.00 | 0.84 | 0.00 | 96 | 1012.4 |
| 20260505233124 | 8 | 228 | 0.0 | 0.0 | 0.00 | 0.84 | 0.00 | 96 | 1012.6 |
| 20260505231608 | 8 | 228 | 0.0 | 0.0 | 0.00 | 0.84 | 0.00 | 96 | 1012.7 |
| 20260505224614 | 8 | 228 | 0.0 | 0.0 | 0.00 | 0.84 | 0.00 | 95 | 1012.7 |
| 20260505223111 | 8 | 228 | 0.0 | 0.0 | 0.00 | 0.84 | 0.00 | 95 | 1013.0 |
| 20260505220141 | 8 | 228 | 0.0 | 0.0 | 0.00 | 0.84 | 0.00 | 95 | 1013.0 |
| 20260505214616 | 8 | 228 | 0.0 | 0.0 | 0.00 | 0.84 | 0.84 | 95 | 1013.1 |
| 20260505211615 | 8 | 228 | 0.0 | 0.0 | 0.00 | 0.84 | 0.84 | 95 | 1013.3 |
| 20260505210114 | 8 | 228 | 0.0 | 0.0 | 0.00 | 0.84 | 0.84 | 95 | 1013.4 |
| 20260505203114 | 8 | 228 | 0.0 | 0.0 | 0.03 | 0.84 | 0.84 | 95 | 1013.4 |
| 20260505201609 | 8 | 228 | 0.0 | 0.0 | 0.03 | 0.84 | 0.84 | 95 | 1013.7 |
| 20260505194620 | 9 | 228 | 0.0 | 0.0 | 0.00 | 0.81 | 0.81 | 95 | 1013.4 |
| 20260505191615 | 9 | 228 | 0.0 | 0.0 | 0.00 | 0.81 | 0.81 | 94 | 1013.2 |
| 20260505184612 | 9 | 228 | 0.0 | 0.0 | 0.03 | 0.81 | 0.81 | 94 | 1013.1 |
| 20260505181614 | 9 | 228 | 0.0 | 0.0 | 0.03 | 0.81 | 0.81 | 94 | 1012.6 |
| 20260505174614 | 9 | 228 | 0.0 | 0.0 | 0.00 | 0.79 | 0.79 | 94 | 1012.6 |
| 20260505171617 | 9 | 228 | 0.0 | 0.0 | 0.00 | 0.79 | 0.79 | 93 | 1012.5 |
| 20260505164634 | 9 | 251 | 0.0 | 0.0 | 0.03 | 0.79 | 0.79 | 93 | 1012.5 |
| 20260505161621 | 9 | 251 | 0.0 | 0.0 | 0.05 | 0.79 | 0.79 | 93 | 1012.8 |
| 20260505151614 | 8 | 255 | 0.0 | 0.0 | 0.00 | 0.76 | 0.76 | 93 | 1012.8 |
| 20260505140120 | 8 | 243 | 0.0 | 0.0 | 0.05 | 0.76 | 0.76 | 94 | 1012.9 |
| 20260505130112 | 9 | 249 | 0.0 | 0.0 | 0.08 | 0.71 | 0.71 | 92 | 1013.1 |
| 20260505124612 | 9 | 249 | 0.0 | 0.0 | 0.05 | 0.71 | 0.71 | 92 | 1013.0 |
| 20260505121643 | 9 | 249 | 0.0 | 0.0 | 0.03 | 0.66 | 0.66 | 92 | 1013.2 |